Preview of NWS' New Version of Forecast
This preview is not operational and should not be used for support decisions.

Regional Weather Roundup (RWR)

Issued by National Weather Service (NWS)

                            
000
ASUS43 KDMX 190501
RWRIA 

WEATHER ROUNDUP FOR IOWA
NATIONAL WEATHER SERVICE DES MOINES IA
1200 AM CDT WED JUN 19 2019

NOTE: "FAIR" INDICATES FEW OR NO CLOUDS BELOW 12,000 FEET WITH NO
SIGNIFICANT WEATHER AND/OR OBSTRUCTIONS TO VISIBILITY.

* - THESE STATIONS ARE NOT NWS STATIONS...THUS NOT UNDER NWS
QUALITY CONTROL.  THEY ALSO DO NOT REPORT WEATHER SUCH 
AS PRECIPITATION OR FOG.  

IAZ001>003-012>014-020>022-031>034-043>046-190600-
   NORTHWEST IOWA
  
CITY           SKY/WX    TMP DP  RH WIND       PRES   REMARKS
CARROLL *      CLOUDY    64  63  94 N3        29.89F FOG              
CHEROKEE *     CLEAR     59  59 100 CALM      29.92S FOG              
DENISON *      CLOUDY    63  63 100 CALM      29.91F FOG              
LE MARS *      MOCLDY    61  61 100 CALM      29.91F                  
SHELDON *        N/A     61  61 100 CALM      29.90S                  
SIOUX CITY     CLEAR     58  57  97 NW3       29.91S FOG              
SPENCER        CLEAR     60  56  86 SW3       29.92                   
STORM LAKE *   CLEAR     63  61  94 NW7       29.89S                  
$$
 
IAZ055>058-069>071-079>083-090>094-190600-
   SOUTHWEST IOWA
  
CITY           SKY/WX    TMP DP  RH WIND       PRES   REMARKS
ATLANTIC *     CLOUDY    64  64 100 NE5       29.88F                  
AUDUBON *      LGT RAIN  63  61  94 CALM      29.90F                  
CLARINDA *     CLOUDY    66  66 100 N7        29.88S                  
COUNCIL BLFS * CLOUDY    64  64 100 CALM      29.88S FOG              
CRESTON *      CLOUDY    64  64 100 NE9       29.87F                  
HARLAN  *      CLOUDY    64  64 100 N5        29.89F                  
LAMONI         CLOUDY    67  64  90 NE10      29.85F                  
RED OAK *        N/A     66  66 100 N3        29.88S                  
SHENANDOAH *   CLOUDY    66  66 100 CALM      29.86S                  
$$
 
IAZ047>049-059>061-072>074-084-190600-
   CENTRAL IOWA
  
CITY           SKY/WX    TMP DP  RH WIND       PRES   REMARKS
AMES           CLOUDY    66  64  93 N5        29.88F                  
ANKENY *       CLOUDY    66  64  94 N3        29.89S FOG              
BOONE *        CLOUDY    64  64 100 N9        29.88F                  
CHARITON *     CLOUDY    66  66 100 N7        29.86F                  
DES MOINES     LGT RAIN  67  63  87 NE7       29.87S                  
GRINNELL*      CLOUDY    65  63  90 N3        29.89S                  
KNOXVILLE *    CLOUDY    68  63  83 N6        29.87S                  
MARSHALLTOWN   CLOUDY    65  65 100 N6        29.88S                  
NEWTON *       CLOUDY    66  66 100 N6        29.88S                  
PELLA *        PTCLDY    67  62  85 N5        29.88S                  
PERRY *        DRIZZLE   65  65 100 CALM      29.89S                  
$$
 
IAZ004>006-015-016-023>025-035-036-190600-
   NORTH CENTRAL IOWA
  
CITY           SKY/WX    TMP DP  RH WIND       PRES   REMARKS
ALGONA *         N/A     64  61  88 CALM      29.90S                  
CLARION *      CLOUDY    66  63  88 N3        29.90F                  
ESTHERVILLE    CLEAR     59  57  93 W3        29.91S                  
FORT DODGE *   PTCLDY    63  63 100 CALM      29.90F                  
MASON CITY     CLEAR     61  58  90 N3        29.91F                  
FOREST CITY *  FAIR      61  59  94 CALM      29.91S                  
IOWA FALLS *   RAIN      67  65  94 CALM      29.90F                  
$$

IAZ007>011-017>019-026>030-037>042-050>054-066-190600-
   NORTHEAST IOWA
  
CITY           SKY/WX    TMP DP  RH WIND       PRES   REMARKS
CEDAR RAPIDS   MOCLDY    68  62  81 NE3       29.86F                  
CHARLES CITY * CLOUDY    64  59  82 N5        29.90S                  
CLINTON *      FAIR      67  64  90 NE5       29.87S                  
DECORAH *      CLOUDY    64  61  88 CALM      29.88F                  
DUBUQUE        CLOUDY    67  64  90 CALM      29.88F                  
MONTICELLO *   MOCLDY    66  66 100 CALM      29.87S                  
OELWEIN *      CLOUDY    66  66 100 CALM      29.89S                  
WATERLOO       CLOUDY    69  62  78 CALM      29.88S                  
$$
 
IAZ064-065-067-068-078-190600-
   EAST CENTRAL IOWA
  
CITY           SKY/WX    TMP DP  RH WIND       PRES   REMARKS
DAVENPORT      FAIR      68  63  84 NE5       29.88S                  
IOWA CITY      FAIR      67  62  84 NE6       29.87F                  
MUSCATINE *    FAIR      68  64  88 CALM      29.86S                  
QUAD CITIES    FAIR      69  64  84 CALM      29.85F                  
$$
 
IAZ062-063-075>077-085>089-095>099-190600-
   SOUTHEAST IOWA
  
CITY           SKY/WX    TMP DP  RH WIND       PRES   REMARKS
BURLINGTON     CLOUDY    68  64  87 CALM      29.84F                  
FAIRFIELD *    MOCLDY    68  64  88 NE5       29.85S                  
FORT MADISON * CLEAR     68  66  94 CALM      29.86F                  
KEOKUK *       CLEAR     66  64  94 CALM      29.84F                  
OSKALOOSA *    FAIR      68  62  80 NE7       29.86F                  
OTTUMWA        PTCLDY    69  63  81 NE8       29.85F                  
WASHINGTON *   CLEAR     68  68 100 NE6       29.86F                  
$$

ABBREVIATIONS USED IN REMARKS
   TC - TEMPERATURES IN CELSIUS
  WCI - WIND CHILL INDEX
   HX - HEAT INDEX
  VSB - VISIBILITY  
$$